Regional Weather Roundup
Issued by NWS Newport/Morehead, NC

Current Version | Previous Version | Text Only | Print | Product List | Glossary On
Versions: 1 2 3 4 5 6 7 8 9 10 11 12 13 14 15 16 17 18 19 20 21 22 23 24 25 26 27 28 29 30 31 32 33 34 35 36 37 38 39 40 41 42 43 44 45 46 47 48 49 50
000 ASUS42 KMHX 140426 RWRMHX WEATHER ROUNDUP FOR EASTERN NORTH CAROLINA NATIONAL WEATHER SERVICE NEWPORT/MOREHEAD CITY NC 1100 PM EST WED DEC 13 2017 NOTE: "FAIR" INDICATES FEW OR NO CLOUDS BELOW 12,000 FEET WITH NO SIGNIFICANT WEATHER AND/OR OBSTRUCTIONS TO VISIBILITY NCZ015>017-031-032-045>047-102-103-140500- NORTH COAST CITY SKY/WX TMP DP RH WIND PRES REMARKS EDENTON CLOUDY 41 23 48 SW15 29.82R ELIZABETH CITY CLOUDY 40 23 50 S10 29.82R KITTY HAWK PTCLDY 38 22 52 SW3 29.80F MANTEO CLOUDY 39 24 55 SW15G21 29.82F $$ NCZ045>047-081-094-103-104-140500- CENTRAL COAST CITY SKY/WX TMP DP RH WIND PRES REMARKS FRISCO CLEAR 48 36 63 SW14G23 29.83F $$ NCZ095-097-098-100-101-140500- SOUTHERN COAST CITY SKY/WX TMP DP RH WIND PRES REMARKS BEAUFORT CLEAR 49 37 63 SW24G30 29.82F CEDAR ISLAND NOT AVBL JACKSONVILLE CLEAR 40 24 53 SW5 29.82F PINEY ISLAND N/A N/A N/A N/A S5 29.82F WILMINGTON CLEAR 36 28 73 SW7 29.84F $$ NCZ011>013-027>030-043-044-078>080-089-090>093-098-140500- COASTAL PLAIN CITY SKY/WX TMP DP RH WIND PRES REMARKS AHOSKIE CLOUDY 37 17 43 SW7 29.77S CLINTON CLEAR 39 23 51 S6 29.80F ELIZABETHTOWN NOT AVBL GOLDSBORO CLOUDY 40 19 43 SW7 29.78S GREENVILLE CLOUDY 39 19 45 SW9 29.82S HAVELOCK CLEAR 36 32 85 SW5 29.83F KENANSVILLE CLEAR 39 19 45 SW6 29.82R KINSTON NOT AVBL NEW BERN CLEAR 39 25 57 SW10 29.82F RICHLANDS PTCLDY 37 23 56 SW9 29.83F ROCKY MOUNT CLOUDY 39 20 46 S10 29.77F WASHINGTON CLOUDY 38 18 45 SW8 29.81S WHITEVILLE CLEAR 40 25 55 S10G16 29.84F $$ AMZ130-135-150-152-154-156-158-170-250-252-270-ANZ085-086-088-633-658-670-140500- MARINE OBSERVATIONS STATION/POSITION TIME TEMP WIND PRES WAVE SWELL AIR SEA DIR/SP/G HT/PER HT/PER (UTC) (F) (DEG/KT/KT) (MB) (FT/S) (FT/S) CHESAPEAKE LIGHT NOT AVBL 64 E VA BEACH 0350 45 58 240/ 17/ 21 1009.9 4/ 5 DUCK 0400 41 53 200/ 14/ 18 1008.6 2 E DUCK 0400 55 N/A 1/ 2 OREGON INLET 0400 42 42 210/ 13/ 18 1009.7 13E OREGON INLT 0348 56 N/A 3/ 7 2/ 7 HATTERAS CG 0400 50 49 220/ 12/ 18 1009.4 DIAMOND BUOY 0410 55 74 220/ 21/ 29 1009.9 CAPE LOOKOUT 0400 210/ 16/ 23 1010.0 BEAUFORT LAB 0400 50 50 210/ 12/ 24 1009.4 30 SE NEW RVR IN 0408 54 63 220/ 19/ 25 1010.4 30 SE NEW RVR IN 0400 63 N/A 5/ 4 27 SE WRIGHTSVLE 0408 56 64 230/ 23/ 33 1010.4 5 SE WRIGHTSVLE 0408 52 57 240/ 19/ 25 1010.1 225 S CAPE HAT 0350 63 74 230/ 17/ 25 1013.5 8/ 8 5/ 9 41 SE CHARLESTON 0410 73 240/ 23/ 29 1012.1 $$

USA.gov is the U.S. government's official web portal to all federal, state and local government web resources and services.